This is the latest recevied weather packets stored in our database for station/object CA2RRL-10. If no packets are shown the sender has not sent any weather packets the latest 10 day(s).
| Time | Temp. | Humidity | Pressure | Rain* | Wind** | Luminosity | Snow |
|---|---|---|---|---|---|---|---|
| 1777827810 | 28.33° C | 20% | 1030.7 hPa | - | - | - | - |
| 1777826909 | 27.78° C | 21% | 1030.7 hPa | - | - | - | - |
| 1777826009 | 26.67° C | 22% | 1030.9 hPa | - | - | - | - |
| 1777825109 | 26.11° C | 23% | 1031 hPa | - | - | - | - |
| 1777824209 | 25° C | 25% | 1031.3 hPa | - | - | - | - |
| 1777823309 | 23.33° C | 27% | 1031.4 hPa | - | - | - | - |
| 1777822409 | 22.22° C | 29% | 1031.5 hPa | - | - | - | - |
| 1777821509 | 20.56° C | 32% | 1031.5 hPa | - | - | - | - |
| 1777820609 | 19.44° C | 34% | 1031.9 hPa | - | - | - | - |
| 1777819709 | 17.78° C | 36% | 1032.1 hPa | - | - | - | - |
| 1777818809 | 16.67° C | 36% | 1032.1 hPa | - | - | - | - |
| 1777817909 | 15.56° C | 38% | 1032.1 hPa | - | - | - | - |
| 1777817008 | 14.44° C | 40% | 1032.3 hPa | - | - | - | - |
| 1777816108 | 13.89° C | 41% | 1032.4 hPa | - | - | - | - |
| 1777815208 | 12.78° C | 43% | 1032.3 hPa | - | - | - | - |
| 1777814308 | 11.67° C | 46% | 1032.2 hPa | - | - | - | - |
| 1777813408 | 10.56° C | 48% | 1032.4 hPa | - | - | - | - |
| 1777812508 | 9.44° C | 50% | 1032.1 hPa | - | - | - | - |
| 1777811608 | 8.89° C | 51% | 1032 hPa | - | - | - | - |
| 1777810708 | 8.33° C | 51% | 1031.8 hPa | - | - | - | - |
| 1777809808 | 8.33° C | 50% | 1031.7 hPa | - | - | - | - |
| 1777808908 | 7.78° C | 50% | 1031.4 hPa | - | - | - | - |
| 1777808008 | 8.33° C | 50% | 1031.3 hPa | - | - | - | - |
| 1777807108 | 8.33° C | 50% | 1031.1 hPa | - | - | - | - |
| 1777806207 | 8.33° C | 50% | 1031 hPa | - | - | - | - |
* Rain since midnight (hover to see other rain measurements)
** Current wind speed in m/s (hover to see current wind gust speed)